Regional Weather Roundup
Issued by NWS

Home | Current Version | Previous Version | Text Only | Print | Product List | Glossary Off
Versions: 1 2 3 4 5 6 7 8 9 10 11 12 13 14 15 16 17 18 19 20 21 22 23 24 25 26 27 28 29 30 31 32 33 34 35 36 37 38 39 40 41 42 43 44 45 46 47 48 49 50

000
ASUS43 KDMX 062101
RWRIA

WEATHER ROUNDUP FOR IOWA
NATIONAL WEATHER SERVICE DES MOINES IA
300 PM CST TUE DEC 06 2016

NOTE: "FAIR" INDICATES FEW OR NO CLOUDS BELOW 12,000 FEET WITH NO
SIGNIFICANT WEATHER AND/OR OBSTRUCTIONS TO VISIBILITY.

* - THESE STATIONS ARE NOT NWS STATIONS...THUS NOT UNDER NWS
QUALITY CONTROL.  THEY ALSO DO NOT REPORT WEATHER SUCH
AS PRECIPITATION OR FOG.

IAZ001>003-012>014-020>022-031>034-043>046-062200-
   NORTHWEST IOWA

CITY           SKY/WX    TMP DP  RH WIND       PRES   REMARKS
CARROLL *      SUNNY     30  16  55 W29       29.92R WCI  15
CHEROKEE *     SUNNY     27  12  52 W22G31    29.91R WCI  13
DENISON *      SUNNY     30  12  47 W20G28    29.92R WCI  18
LE MARS *      MOSUNNY   28  10  47 W20G32    29.94S WCI  15
ORANGE CITY *  SUNNY     25  12  58 W25       29.89S WCI   9
SHELDON *      CLOUDY    25  14  63 W30G40    29.86R WCI   8
SIOUX CITY     SUNNY     32  11  41 NW24G31   29.94R WCI  19
SPENCER        CLOUDY    24  12  60 W37G45    29.87R WCI   5
STORM LAKE *   SUNNY     27  12  54 W26G35    29.88S WCI  11
$$

IAZ055>058-069>071-079>083-090>094-062200-
   SOUTHWEST IOWA

CITY           SKY/WX    TMP DP  RH WIND       PRES   REMARKS
ATLANTIC *     SUNNY     32  14  47 W18G24    29.97S WCI  20
AUDUBON *      SUNNY     30  12  47 W13G21    29.94S WCI  20
CLARINDA *     SUNNY     36  14  41 NW20G28   30.01S WCI  25
COUNCIL BLFS * SUNNY     32  10  40 W20G25    29.98R WCI  20
CRESTON *      SUNNY     32  14  47 W21G28    29.97S WCI  20
HARLAN  *      SUNNY     30  14  51 W25G31    29.99  WCI  16
LAMONI         SUNNY     34  17  50 W15       29.98R WCI  24
RED OAK *      SUNNY     34  14  44 W12G20    30.00S WCI  25
SHENANDOAH *   SUNNY     36  12  38 NW15G23   30.02R WCI  26
$$

IAZ047>049-059>061-072>074-084-062200-
   CENTRAL IOWA

CITY           SKY/WX    TMP DP  RH WIND       PRES   REMARKS
AMES           MOSUNNY   31  20  63 W22G28    29.92R WCI  18
ANKENY *       SUNNY     32  16  51 W15G25    29.94S WCI  22
BOONE *        SUNNY     30  18  59 W21G28    29.90R WCI  17
CHARITON *       N/A     34  18  51 W13G21    29.95R WCI  25
DES MOINES     MOSUNNY   34  15  46 W22       29.94R WCI  22
GRINNELL*      SUNNY     31  20  62 W21       29.91R WCI  19
KNOXVILLE *    SUNNY     34  16  47 W21       29.93S WCI  22
MARSHALLTOWN   MOSUNNY   30  20  66 W21G28    29.89S WCI  17
NEWTON *       SUNNY     32  18  55 W20G26    29.92R WCI  20
PELLA *        SUNNY     34  17  50 W16G22    29.95R WCI  23
PERRY *          N/A     32  21  65 W22G30    29.93R WCI  19
$$

IAZ004>006-015-016-023>025-035-036-062200-
   NORTH CENTRAL IOWA

CITY           SKY/WX    TMP DP  RH WIND       PRES   REMARKS
ALGONA *       MOSUNNY   27  16  63 W26G36    29.85R WCI  11
CLARION *      MOSUNNY   27  18  69 W23G36    29.87R WCI  12
ESTHERVILLE    MOSUNNY   24  14  65 W29G36    29.83R WCI   7
FORT DODGE *   MOSUNNY   28  14  54 W18G28    29.90R WCI  16
MASON CITY     PTSUNNY   26  15  63 W23G33    29.84R WCI  11
WEBSTER CITY * MOSUNNY   28  19  69 W22G28    29.88R WCI  15
IOWA FALLS *     N/A     29  20  69 W22G29    29.89R WCI  16
$$

IAZ007>011-017>019-026>030-037>042-050>054-066-062200-
   NORTHEAST IOWA

CITY           SKY/WX    TMP DP  RH WIND       PRES   REMARKS
CEDAR RAPIDS   SUNNY     29  22  75 W20       29.89R WCI  16
CHARLES CITY * CLOUDY    25  16  68 W24G32    29.83S WCI   9
CLINTON *      SUNNY     33  24  69 W21       29.86R WCI  21
DECORAH *      CLOUDY    25  16  68 W10G22    29.81R WCI  15
DUBUQUE        PTSUNNY   27  20  75 W20G28    29.84R WCI  13
MONTICELLO *   SUNNY     28  21  74 W18G28    29.86R WCI  16
OELWEIN *      PTSUNNY   25  19  80 W21       29.86R WCI  10
WATERLOO       CLOUDY    28  18  66 W18G26    29.87R WCI  15
$$

IAZ064-065-067-068-078-062200-
   EAST CENTRAL IOWA

CITY           SKY/WX    TMP DP  RH WIND       PRES   REMARKS
DAVENPORT      SUNNY     33  22  63 W20       29.88R WCI  21
IOWA CITY      SUNNY     32  20  61 W18G28    29.93R WCI  20
MUSCATINE *    SUNNY     36  19  51 W20       29.92R WCI  25
QUAD CITIES    MOSUNNY   36  25  64 W17       29.88R WCI  26
$$

IAZ062-063-075>077-085>089-095>099-062200-
   SOUTHEAST IOWA

CITY           SKY/WX    TMP DP  RH WIND       PRES   REMARKS
BURLINGTON     SUNNY     36  23  59 W9G18     29.92R WCI  29
FAIRFIELD *    SUNNY     34  18  51 W13G21    29.93S WCI  25
FORT MADISON * SUNNY     37  25  60 NW13G18   29.94R WCI  29
KEOKUK *       SUNNY     39  25  56 W15G22    29.94R WCI  31
OSKALOOSA *      N/A     33  20  59 W17       29.95R WCI  22
CENTERVILLE *    N/A     34  18  51 W16G24    29.97R WCI  23
OTTUMWA        SUNNY     35  17  47 W15       29.94R WCI  25
WASHINGTON *   SUNNY     34  19  55 W18       29.94R WCI  23
$$

ABBREVIATIONS USED IN REMARKS
   TC - TEMPERATURES IN CELSIUS
  WCI - WIND CHILL INDEX
   HX - HEAT INDEX
  VSB - VISIBILITY
$$





USA.gov is the U.S. government's official web portal to all federal, state and local government web resources and services.